Time,TemperatureF,DewpointF,PressureIn,WindDirection,WindDirectionDegrees,WindSpeedMPH,WindSpeedGustMPH,Humidity,HourlyPrecipIn,Conditions,Clouds,dailyrainin,SoftwareType,DateUTC
2013-07-17 00:01:00,66.4,65.0,29.59,West,270,0.0,1.0,95,0.00,,,0.00,Rainwise IP-100,2013-07-17 04:01:00,
2013-07-17 00:06:00,66.3,65.0,29.59,West,270,2.0,2.0,96,0.00,,,0.00,Rainwise IP-100,2013-07-17 04:06:00,
2013-07-17 00:11:00,66.3,66.0,29.59,West,270,1.0,3.0,98,0.00,,,0.00,Rainwise IP-100,2013-07-17 04:11:00,
2013-07-17 00:16:00,66.2,66.0,29.59,West,270,1.0,2.0,98,0.00,,,0.00,Rainwise IP-100,2013-07-17 04:16:00,
2013-07-17 00:21:00,66.1,65.0,29.58,West,270,0.0,2.0,98,0.00,,,0.00,Rainwise IP-100,2013-07-17 04:21:00,
2013-07-17 00:26:00,65.9,65.0,29.58,West,270,0.0,0.0,98,0.00,,,0.00,Rainwise IP-100,2013-07-17 04:26:00,
2013-07-17 00:32:00,65.8,64.0,29.58,West,270,0.0,0.0,97,0.00,,,0.00,Rainwise IP-100,2013-07-17 04:32:00,
2013-07-17 00:37:00,65.7,64.0,29.58,West,270,0.0,0.0,97,0.00,,,0.00,Rainwise IP-100,2013-07-17 04:37:00,
2013-07-17 00:42:00,65.7,65.0,29.58,West,270,0.0,0.0,98,0.00,,,0.00,Rainwise IP-100,2013-07-17 04:42:00,
2013-07-17 00:47:00,65.6,65.0,29.58,West,270,0.0,0.0,98,0.00,,,0.00,Rainwise IP-100,2013-07-17 04:47:00,
2013-07-17 00:52:00,65.6,65.0,29.58,West,270,0.0,0.0,98,0.00,,,0.00,Rainwise IP-100,2013-07-17 04:52:00,
2013-07-17 00:57:00,65.5,65.0,29.58,West,270,0.0,0.0,98,0.00,,,0.00,Rainwise IP-100,2013-07-17 04:57:00,
2013-07-17 01:02:00,65.7,65.0,29.58,West,270,0.0,0.0,98,0.00,,,0.00,Rainwise IP-100,2013-07-17 05:02:00,
2013-07-17 01:07:00,65.7,65.0,29.58,West,270,0.0,0.0,98,0.00,,,0.00,Rainwise IP-100,2013-07-17 05:07:00,
2013-07-17 01:13:00,65.6,65.0,29.57,West,270,0.0,2.0,98,0.00,,,0.00,Rainwise IP-100,2013-07-17 05:13:00,
2013-07-17 01:18:00,65.6,65.0,29.58,West,270,1.0,2.0,98,0.00,,,0.00,Rainwise IP-100,2013-07-17 05:18:00,
2013-07-17 01:23:00,65.4,65.0,29.58,West,270,0.0,2.0,99,0.00,,,0.00,Rainwise IP-100,2013-07-17 05:23:00,
2013-07-17 01:28:00,65.3,64.0,29.58,West,270,0.0,1.0,99,0.00,,,0.00,Rainwise IP-100,2013-07-17 05:28:00,
2013-07-17 01:33:00,65.1,64.0,29.58,West,270,1.0,2.0,99,0.00,,,0.00,Rainwise IP-100,2013-07-17 05:33:00,
2013-07-17 01:38:00,65.1,65.0,29.58,West,270,0.0,2.0,100,0.00,,,0.00,Rainwise IP-100,2013-07-17 05:38:00,
2013-07-17 01:43:00,64.9,64.0,29.58,West,270,1.0,0.0,99,0.00,,,0.00,Rainwise IP-100,2013-07-17 05:43:00,
2013-07-17 01:49:00,64.9,64.0,29.58,West,270,0.0,2.0,99,0.00,,,0.00,Rainwise IP-100,2013-07-17 05:49:00,
2013-07-17 01:54:00,64.7,64.0,29.58,West,270,0.0,1.0,100,0.00,,,0.00,Rainwise IP-100,2013-07-17 05:54:00,
2013-07-17 01:59:00,64.7,64.0,29.58,West,270,0.0,0.0,99,0.00,,,0.00,Rainwise IP-100,2013-07-17 05:59:00,
2013-07-17 02:04:00,64.7,64.0,29.58,West,270,2.0,2.0,100,0.00,,,0.00,Rainwise IP-100,2013-07-17 06:04:00,
2013-07-17 02:09:00,64.7,64.0,29.57,West,270,0.0,2.0,100,0.00,,,0.00,Rainwise IP-100,2013-07-17 06:09:00,
2013-07-17 02:14:00,64.6,64.0,29.57,West,270,0.0,0.0,100,0.00,,,0.00,Rainwise IP-100,2013-07-17 06:14:00,
2013-07-17 02:19:00,64.3,64.0,29.57,West,270,0.0,0.0,100,0.00,,,0.00,Rainwise IP-100,2013-07-17 06:19:00,
2013-07-17 02:24:00,64.2,64.0,29.57,West,270,0.0,0.0,100,0.00,,,0.00,Rainwise IP-100,2013-07-17 06:24:00,
2013-07-17 02:30:00,64.1,64.0,29.57,West,270,0.0,2.0,100,0.00,,,0.00,Rainwise IP-100,2013-07-17 06:30:00,
2013-07-17 02:31:00,64.4,64.0,29.57,West,270,0.0,2.0,100,0.00,,,0.00,Rainwise IP-100,2013-07-17 06:31:00,
2013-07-17 02:36:00,64.5,64.0,29.57,West,270,1.0,2.0,100,0.00,,,0.00,Rainwise IP-100,2013-07-17 06:36:00,
2013-07-17 02:41:00,64.3,64.0,29.57,West,270,0.0,1.0,100,0.00,,,0.00,Rainwise IP-100,2013-07-17 06:41:00,
2013-07-17 02:46:00,64.1,64.0,29.57,West,270,0.0,0.0,100,0.00,,,0.00,Rainwise IP-100,2013-07-17 06:46:00,
2013-07-17 02:51:00,63.9,64.0,29.56,West,270,0.0,0.0,100,0.00,,,0.00,Rainwise IP-100,2013-07-17 06:51:00,
2013-07-17 02:57:00,63.8,63.0,29.56,West,270,0.0,0.0,100,0.00,,,0.00,Rainwise IP-100,2013-07-17 06:57:00,
2013-07-17 03:02:00,63.8,63.0,29.56,West,270,2.0,2.0,100,0.00,,,0.00,Rainwise IP-100,2013-07-17 07:02:00,
2013-07-17 03:07:00,63.7,63.0,29.56,West,270,0.0,2.0,100,0.00,,,0.00,Rainwise IP-100,2013-07-17 07:07:00,
2013-07-17 03:12:00,63.6,63.0,29.56,West,270,0.0,2.0,100,0.00,,,0.00,Rainwise IP-100,2013-07-17 07:12:00,
2013-07-17 03:17:00,63.6,63.0,29.56,West,270,0.0,0.0,100,0.00,,,0.00,Rainwise IP-100,2013-07-17 07:17:00,
2013-07-17 03:22:00,63.7,63.0,29.56,West,270,0.0,0.0,100,0.00,,,0.00,Rainwise IP-100,2013-07-17 07:22:00,
2013-07-17 03:27:00,63.7,63.0,29.56,West,270,0.0,2.0,100,0.00,,,0.00,Rainwise IP-100,2013-07-17 07:27:00,
2013-07-17 03:32:00,63.6,63.0,29.56,West,270,0.0,0.0,100,0.00,,,0.00,Rainwise IP-100,2013-07-17 07:32:00,
2013-07-17 03:38:00,63.6,63.0,29.56,West,270,0.0,2.0,100,0.00,,,0.00,Rainwise IP-100,2013-07-17 07:38:00,
2013-07-17 03:43:00,63.5,63.0,29.56,West,270,0.0,0.0,100,0.00,,,0.00,Rainwise IP-100,2013-07-17 07:43:00,
2013-07-17 03:48:00,63.4,63.0,29.56,West,270,0.0,0.0,100,0.00,,,0.00,Rainwise IP-100,2013-07-17 07:48:00,
2013-07-17 03:53:00,63.4,63.0,29.56,West,270,1.0,2.0,100,0.00,,,0.00,Rainwise IP-100,2013-07-17 07:53:00,
2013-07-17 03:58:00,63.2,63.0,29.56,West,270,0.0,2.0,100,0.00,,,0.00,Rainwise IP-100,2013-07-17 07:58:00,
2013-07-17 04:03:00,63.3,62.0,29.57,West,270,0.0,1.0,99,0.00,,,0.00,Rainwise IP-100,2013-07-17 08:03:00,
2013-07-17 04:08:00,63.2,62.0,29.57,West,270,0.0,0.0,99,0.00,,,0.00,Rainwise IP-100,2013-07-17 08:08:00,
2013-07-17 04:14:00,63.3,63.0,29.57,West,270,0.0,2.0,100,0.00,,,0.00,Rainwise IP-100,2013-07-17 08:14:00,
2013-07-17 04:19:00,63.4,63.0,29.57,West,270,0.0,0.0,100,0.00,,,0.00,Rainwise IP-100,2013-07-17 08:19:00,
2013-07-17 04:24:00,63.3,63.0,29.57,West,270,0.0,0.0,100,0.00,,,0.00,Rainwise IP-100,2013-07-17 08:24:00,
2013-07-17 04:29:00,63.3,63.0,29.57,West,270,0.0,0.0,100,0.00,,,0.00,Rainwise IP-100,2013-07-17 08:29:00,
2013-07-17 04:34:00,63.3,63.0,29.57,West,270,0.0,0.0,100,0.00,,,0.00,Rainwise IP-100,2013-07-17 08:34:00,
2013-07-17 04:39:00,63.4,63.0,29.57,West,270,1.0,2.0,100,0.00,,,0.00,Rainwise IP-100,2013-07-17 08:39:00,
2013-07-17 04:44:00,63.3,63.0,29.57,West,270,0.0,1.0,100,0.00,,,0.00,Rainwise IP-100,2013-07-17 08:44:00,
2013-07-17 04:49:00,63.3,63.0,29.57,West,270,0.0,1.0,100,0.00,,,0.00,Rainwise IP-100,2013-07-17 08:49:00,
2013-07-17 04:55:00,63.4,63.0,29.57,West,270,0.0,1.0,100,0.00,,,0.00,Rainwise IP-100,2013-07-17 08:55:00,
2013-07-17 05:00:00,63.2,63.0,29.57,West,270,0.0,2.0,100,0.00,,,0.00,Rainwise IP-100,2013-07-17 09:00:00,
2013-07-17 05:05:00,63.1,63.0,29.58,West,270,0.0,0.0,100,0.00,,,0.00,Rainwise IP-100,2013-07-17 09:05:00,
2013-07-17 05:10:00,63.2,63.0,29.58,West,270,0.0,2.0,100,0.00,,,0.00,Rainwise IP-100,2013-07-17 09:10:00,
2013-07-17 05:15:00,63.3,63.0,29.58,West,270,2.0,3.0,100,0.00,,,0.00,Rainwise IP-100,2013-07-17 09:15:00,
2013-07-17 05:20:00,63.1,63.0,29.58,West,270,0.0,3.0,100,0.00,,,0.00,Rainwise IP-100,2013-07-17 09:20:00,
2013-07-17 05:25:00,62.9,63.0,29.58,West,270,0.0,0.0,100,0.00,,,0.00,Rainwise IP-100,2013-07-17 09:25:00,
2013-07-17 05:31:00,62.7,62.0,29.58,West,270,0.0,0.0,100,0.00,,,0.00,Rainwise IP-100,2013-07-17 09:31:00,
2013-07-17 05:36:00,62.7,62.0,29.58,West,270,0.0,0.0,100,0.00,,,0.00,Rainwise IP-100,2013-07-17 09:36:00,
2013-07-17 05:41:00,62.9,63.0,29.58,West,270,0.0,0.0,100,0.00,,,0.00,Rainwise IP-100,2013-07-17 09:41:00,
2013-07-17 05:46:00,62.9,63.0,29.58,West,270,0.0,0.0,100,0.00,,,0.00,Rainwise IP-100,2013-07-17 09:46:00,
2013-07-17 05:51:00,63.2,63.0,29.58,West,270,0.0,0.0,100,0.00,,,0.00,Rainwise IP-100,2013-07-17 09:51:00,
2013-07-17 05:56:00,63.3,63.0,29.58,West,270,0.0,0.0,100,0.00,,,0.00,Rainwise IP-100,2013-07-17 09:56:00,
2013-07-17 06:01:00,63.3,63.0,29.58,West,270,0.0,0.0,100,0.00,,,0.00,Rainwise IP-100,2013-07-17 10:01:00,
2013-07-17 06:06:00,63.7,63.0,29.59,West,270,0.0,0.0,100,0.00,,,0.00,Rainwise IP-100,2013-07-17 10:06:00,
2013-07-17 06:12:00,64.4,64.0,29.59,West,270,0.0,0.0,100,0.00,,,0.00,Rainwise IP-100,2013-07-17 10:12:00,
2013-07-17 06:17:00,64.7,64.0,29.59,West,270,0.0,0.0,100,0.00,,,0.00,Rainwise IP-100,2013-07-17 10:17:00,
2013-07-17 06:22:00,65.6,65.0,29.59,West,270,0.0,0.0,100,0.00,,,0.00,Rainwise IP-100,2013-07-17 10:22:00,
2013-07-17 06:27:00,66.1,66.0,29.59,West,270,0.0,0.0,100,0.00,,,0.00,Rainwise IP-100,2013-07-17 10:27:00,
2013-07-17 06:32:00,66.1,66.0,29.59,West,270,0.0,0.0,100,0.00,,,0.00,Rainwise IP-100,2013-07-17 10:32:00,
2013-07-17 06:37:00,66.3,66.0,29.59,West,270,0.0,0.0,100,0.00,,,0.00,Rainwise IP-100,2013-07-17 10:37:00,
2013-07-17 06:42:00,66.8,66.0,29.60,West,270,0.0,0.0,100,0.00,,,0.00,Rainwise IP-100,2013-07-17 10:42:00,
2013-07-17 06:48:00,67.3,67.0,29.60,West,270,0.0,0.0,100,0.00,,,0.00,Rainwise IP-100,2013-07-17 10:48:00,
2013-07-17 06:53:00,67.6,67.0,29.60,West,270,0.0,0.0,100,0.00,,,0.00,Rainwise IP-100,2013-07-17 10:53:00,
2013-07-17 06:58:00,68.1,68.0,29.60,ENE,67,2.0,3.0,100,0.00,,,0.00,Rainwise IP-100,2013-07-17 10:58:00,
2013-07-17 07:03:00,68.5,68.0,29.60,ESE,112,1.0,3.0,99,0.00,,,0.00,Rainwise IP-100,2013-07-17 11:03:00,
2013-07-17 07:08:00,68.7,68.0,29.60,East,90,2.0,4.0,98,0.00,,,0.00,Rainwise IP-100,2013-07-17 11:08:00,
2013-07-17 07:13:00,69.1,68.0,29.60,ENE,67,2.0,4.0,98,0.00,,,0.00,Rainwise IP-100,2013-07-17 11:13:00,
2013-07-17 07:18:00,69.3,68.0,29.60,East,90,2.0,5.0,97,0.00,,,0.00,Rainwise IP-100,2013-07-17 11:18:00,
2013-07-17 07:23:00,69.9,69.0,29.60,ENE,67,0.0,4.0,97,0.00,,,0.00,Rainwise IP-100,2013-07-17 11:23:00,
2013-07-17 07:29:00,70.5,69.0,29.60,ENE,67,1.0,4.0,97,0.00,,,0.00,Rainwise IP-100,2013-07-17 11:29:00,
2013-07-17 07:34:00,70.8,69.0,29.61,ENE,67,0.0,4.0,96,0.00,,,0.00,Rainwise IP-100,2013-07-17 11:34:00,
2013-07-17 07:39:00,71.4,69.0,29.61,ENE,67,2.0,5.0,94,0.00,,,0.00,Rainwise IP-100,2013-07-17 11:39:00,
2013-07-17 07:44:00,71.9,70.0,29.61,ENE,67,1.0,3.0,94,0.00,,,0.00,Rainwise IP-100,2013-07-17 11:44:00,
2013-07-17 07:49:00,72.3,69.0,29.62,NE,45,2.0,6.0,91,0.00,,,0.00,Rainwise IP-100,2013-07-17 11:49:00,
2013-07-17 07:54:00,72.3,69.0,29.62,East,90,2.0,5.0,91,0.00,,,0.00,Rainwise IP-100,2013-07-17 11:54:00,
2013-07-17 07:59:00,72.5,70.0,29.62,East,90,3.0,5.0,92,0.00,,,0.00,Rainwise IP-100,2013-07-17 11:59:00,
2013-07-17 08:05:00,72.8,69.0,29.62,ENE,67,4.0,5.0,90,0.00,,,0.00,Rainwise IP-100,2013-07-17 12:05:00,
2013-07-17 08:10:00,72.9,70.0,29.62,East,90,4.0,6.0,90,0.00,,,0.00,Rainwise IP-100,2013-07-17 12:10:00,
2013-07-17 08:15:00,73.3,70.0,29.62,ENE,67,4.0,6.0,89,0.00,,,0.00,Rainwise IP-100,2013-07-17 12:15:00,
2013-07-17 08:20:00,73.7,69.0,29.62,ENE,67,3.0,6.0,87,0.00,,,0.00,Rainwise IP-100,2013-07-17 12:20:00,
2013-07-17 08:25:00,74.2,70.0,29.62,East,90,4.0,6.0,87,0.00,,,0.00,Rainwise IP-100,2013-07-17 12:25:00,
2013-07-17 08:30:00,74.9,71.0,29.63,SE,135,4.0,5.0,88,0.00,,,0.00,Rainwise IP-100,2013-07-17 12:30:00,
2013-07-17 08:35:00,75.4,71.0,29.63,East,90,1.0,5.0,86,0.00,,,0.00,Rainwise IP-100,2013-07-17 12:35:00,
2013-07-17 08:40:00,75.8,71.0,29.63,East,90,1.0,6.0,87,0.00,,,0.00,Rainwise IP-100,2013-07-17 12:40:00,
2013-07-17 08:46:00,76.2,71.0,29.63,East,90,4.0,6.0,85,0.00,,,0.00,Rainwise IP-100,2013-07-17 12:46:00,
2013-07-17 08:51:00,76.5,71.0,29.63,ESE,112,2.0,6.0,85,0.00,,,0.00,Rainwise IP-100,2013-07-17 12:51:00,
2013-07-17 08:56:00,77.0,72.0,29.63,East,90,0.0,6.0,85,0.00,,,0.00,Rainwise IP-100,2013-07-17 12:56:00,
2013-07-17 09:01:00,77.5,71.0,29.63,East,90,5.0,6.0,81,0.00,,,0.00,Rainwise IP-100,2013-07-17 13:01:00,
2013-07-17 09:06:00,77.5,72.0,29.63,ENE,67,4.0,6.0,82,0.00,,,0.00,Rainwise IP-100,2013-07-17 13:06:00,
2013-07-17 09:11:00,77.8,71.0,29.63,NE,45,4.0,6.0,81,0.00,,,0.00,Rainwise IP-100,2013-07-17 13:11:00,
2013-07-17 09:16:00,78.4,72.0,29.63,East,90,4.0,6.0,81,0.00,,,0.00,Rainwise IP-100,2013-07-17 13:16:00,
2013-07-17 09:22:00,78.9,72.0,29.63,ENE,67,4.0,6.0,80,0.00,,,0.00,Rainwise IP-100,2013-07-17 13:22:00,
2013-07-17 09:27:00,79.5,72.0,29.63,East,90,5.0,7.0,79,0.00,,,0.00,Rainwise IP-100,2013-07-17 13:27:00,
2013-07-17 09:32:00,79.8,72.0,29.63,ENE,67,2.0,6.0,77,0.00,,,0.00,Rainwise IP-100,2013-07-17 13:32:00,
2013-07-17 09:37:00,80.2,73.0,29.62,ESE,112,2.0,5.0,79,0.00,,,0.00,Rainwise IP-100,2013-07-17 13:37:00,
2013-07-17 09:42:00,80.4,73.0,29.63,East,90,4.0,6.0,78,0.00,,,0.00,Rainwise IP-100,2013-07-17 13:42:00,
2013-07-17 09:47:00,80.9,72.0,29.63,ENE,67,4.0,7.0,76,0.00,,,0.00,Rainwise IP-100,2013-07-17 13:47:00,
2013-07-17 09:52:00,80.9,72.0,29.63,East,90,3.0,7.0,76,0.00,,,0.00,Rainwise IP-100,2013-07-17 13:52:00,
2013-07-17 09:57:00,81.2,72.0,29.63,ESE,112,5.0,6.0,74,0.00,,,0.00,Rainwise IP-100,2013-07-17 13:57:00,
2013-07-17 10:03:00,81.3,72.0,29.62,ENE,67,2.0,6.0,74,0.00,,,0.00,Rainwise IP-100,2013-07-17 14:03:00,
2013-07-17 10:08:00,81.5,73.0,29.62,East,90,1.0,6.0,76,0.00,,,0.00,Rainwise IP-100,2013-07-17 14:08:00,
2013-07-17 10:13:00,82.4,73.0,29.62,East,90,1.0,7.0,74,0.00,,,0.00,Rainwise IP-100,2013-07-17 14:13:00,
2013-07-17 10:18:00,82.8,72.0,29.63,NE,45,6.0,6.0,72,0.00,,,0.00,Rainwise IP-100,2013-07-17 14:18:00,
2013-07-17 10:23:00,82.7,73.0,29.63,ENE,67,2.0,6.0,74,0.00,,,0.00,Rainwise IP-100,2013-07-17 14:23:00,
2013-07-17 10:28:00,83.2,74.0,29.63,ESE,112,2.0,6.0,74,0.00,,,0.00,Rainwise IP-100,2013-07-17 14:28:00,
2013-07-17 10:33:00,83.7,73.0,29.63,ENE,67,5.0,8.0,72,0.00,,,0.00,Rainwise IP-100,2013-07-17 14:33:00,
2013-07-17 10:39:00,83.9,74.0,29.62,East,90,3.0,6.0,73,0.00,,,0.00,Rainwise IP-100,2013-07-17 14:39:00,
2013-07-17 10:44:00,83.9,74.0,29.62,NE,45,6.0,7.0,73,0.00,,,0.00,Rainwise IP-100,2013-07-17 14:44:00,
2013-07-17 10:49:00,84.1,74.0,29.62,ENE,67,3.0,7.0,72,0.00,,,0.00,Rainwise IP-100,2013-07-17 14:49:00,
2013-07-17 10:54:00,84.5,75.0,29.62,SSE,157,0.0,6.0,73,0.00,,,0.00,Rainwise IP-100,2013-07-17 14:54:00,
2013-07-17 10:59:00,85.2,75.0,29.62,East,90,4.0,7.0,72,0.00,,,0.00,Rainwise IP-100,2013-07-17 14:59:00,
2013-07-17 11:04:00,85.7,74.0,29.62,East,90,0.0,6.0,70,0.00,,,0.00,Rainwise IP-100,2013-07-17 15:04:00,
2013-07-17 11:09:00,86.3,74.0,29.62,SE,135,1.0,6.0,69,0.00,,,0.00,Rainwise IP-100,2013-07-17 15:09:00,
2013-07-17 11:14:00,86.8,75.0,29.62,ESE,112,0.0,6.0,69,0.00,,,0.00,Rainwise IP-100,2013-07-17 15:14:00,
2013-07-17 11:20:00,86.7,73.0,29.62,SSE,157,2.0,8.0,66,0.00,,,0.00,Rainwise IP-100,2013-07-17 15:20:00,
2013-07-17 11:25:00,87.3,74.0,29.62,South,180,6.0,7.0,67,0.00,,,0.00,Rainwise IP-100,2013-07-17 15:25:00,
2013-07-17 11:30:00,87.7,74.0,29.62,SSE,157,1.0,7.0,64,0.00,,,0.00,Rainwise IP-100,2013-07-17 15:30:00,
2013-07-17 11:35:00,87.9,73.0,29.62,WSW,247,1.0,7.0,63,0.00,,,0.00,Rainwise IP-100,2013-07-17 15:35:00,
2013-07-17 11:40:00,88.3,74.0,29.62,SE,135,1.0,6.0,63,0.00,,,0.00,Rainwise IP-100,2013-07-17 15:40:00,
2013-07-17 11:45:00,88.5,73.0,29.62,East,90,4.0,6.0,61,0.00,,,0.00,Rainwise IP-100,2013-07-17 15:45:00,
2013-07-17 11:50:00,88.2,73.0,29.61,East,90,1.0,6.0,61,0.00,,,0.00,Rainwise IP-100,2013-07-17 15:50:00,
2013-07-17 11:56:00,88.4,75.0,29.61,NNE,22,5.0,6.0,65,0.00,,,0.00,Rainwise IP-100,2013-07-17 15:56:00,
2013-07-17 12:01:00,88.7,74.0,29.61,ESE,112,2.0,8.0,62,0.00,,,0.00,Rainwise IP-100,2013-07-17 16:01:00,
2013-07-17 12:06:00,89.6,76.0,29.61,SE,135,1.0,4.0,66,0.00,,,0.00,Rainwise IP-100,2013-07-17 16:06:00,
2013-07-17 12:11:00,90.3,74.0,29.61,SSW,202,6.0,6.0,61,0.00,,,0.00,Rainwise IP-100,2013-07-17 16:11:00,
2013-07-17 12:16:00,89.3,70.0,29.61,WSW,247,6.0,9.0,53,0.00,,,0.00,Rainwise IP-100,2013-07-17 16:16:00,
2013-07-17 12:21:00,88.7,73.0,29.61,West,270,6.0,8.0,60,0.00,,,0.00,Rainwise IP-100,2013-07-17 16:21:00,
2013-07-17 12:26:00,88.3,73.0,29.61,NNW,337,1.0,8.0,61,0.00,,,0.00,Rainwise IP-100,2013-07-17 16:26:00,
2013-07-17 12:31:00,88.4,74.0,29.61,NE,45,1.0,4.0,64,0.00,,,0.00,Rainwise IP-100,2013-07-17 16:31:00,
2013-07-17 12:37:00,89.4,76.0,29.60,NE,45,0.0,1.0,65,0.00,,,0.00,Rainwise IP-100,2013-07-17 16:37:00,
2013-07-17 12:42:00,89.9,73.0,29.60,SW,225,0.0,6.0,59,0.00,,,0.00,Rainwise IP-100,2013-07-17 16:42:00,
2013-07-17 12:47:00,90.5,70.0,29.60,West,270,6.0,6.0,51,0.00,,,0.00,Rainwise IP-100,2013-07-17 16:47:00,
2013-07-17 12:52:00,90.6,69.0,29.60,WNW,292,4.0,7.0,49,0.00,,,0.00,Rainwise IP-100,2013-07-17 16:52:00,
2013-07-17 12:57:00,90.0,69.0,29.60,West,270,6.0,9.0,50,0.00,,,0.00,Rainwise IP-100,2013-07-17 16:57:00,
2013-07-17 13:02:00,89.5,71.0,29.60,NW,315,4.0,4.0,54,0.00,,,0.00,Rainwise IP-100,2013-07-17 17:02:00,
2013-07-17 13:07:00,90.3,66.0,29.60,WNW,292,6.0,9.0,46,0.00,,,0.00,Rainwise IP-100,2013-07-17 17:07:00,
2013-07-17 13:13:00,90.7,70.0,29.60,NNW,337,0.0,6.0,51,0.00,,,0.00,Rainwise IP-100,2013-07-17 17:13:00,
2013-07-17 13:18:00,90.8,70.0,29.59,WSW,247,6.0,6.0,51,0.00,,,0.00,Rainwise IP-100,2013-07-17 17:18:00,
2013-07-17 13:23:00,89.9,68.0,29.59,WSW,247,6.0,9.0,49,0.00,,,0.00,Rainwise IP-100,2013-07-17 17:23:00,
2013-07-17 13:28:00,90.0,69.0,29.59,WSW,247,7.0,9.0,51,0.00,,,0.00,Rainwise IP-100,2013-07-17 17:28:00,
2013-07-17 13:33:00,90.3,69.0,29.58,NNW,337,5.0,0.0,50,0.00,,,0.00,Rainwise IP-100,2013-07-17 17:33:00,
2013-07-17 13:38:00,90.4,68.0,29.58,NE,45,3.0,8.0,48,0.00,,,0.00,Rainwise IP-100,2013-07-17 17:38:00,
2013-07-17 13:43:00,90.7,67.0,29.58,West,270,7.0,7.0,46,0.00,,,0.00,Rainwise IP-100,2013-07-17 17:43:00,
2013-07-17 13:48:00,90.4,69.0,29.58,SW,225,6.0,6.0,51,0.00,,,0.00,Rainwise IP-100,2013-07-17 17:48:00,
2013-07-17 13:54:00,90.0,66.0,29.58,WNW,292,6.0,0.0,46,0.00,,,0.00,Rainwise IP-100,2013-07-17 17:54:00,
2013-07-17 13:59:00,90.3,66.0,29.58,WNW,292,6.0,9.0,46,0.00,,,0.00,Rainwise IP-100,2013-07-17 17:59:00,
2013-07-17 14:04:00,90.2,67.0,29.58,SSE,157,3.0,3.0,47,0.00,,,0.00,Rainwise IP-100,2013-07-17 18:04:00,
2013-07-17 14:09:00,90.1,69.0,29.58,SW,225,1.0,9.0,51,0.00,,,0.00,Rainwise IP-100,2013-07-17 18:09:00,
2013-07-17 14:14:00,90.4,69.0,29.58,NW,315,5.0,7.0,49,0.00,,,0.00,Rainwise IP-100,2013-07-17 18:14:00,
2013-07-17 14:19:00,89.0,67.0,29.57,WSW,247,6.0,9.0,49,0.00,,,0.00,Rainwise IP-100,2013-07-17 18:19:00,
2013-07-17 14:24:00,89.2,67.0,29.57,SSE,157,2.0,0.0,48,0.00,,,0.00,Rainwise IP-100,2013-07-17 18:24:00,
2013-07-17 14:30:00,89.2,68.0,29.57,SW,225,4.0,8.0,50,0.00,,,0.00,Rainwise IP-100,2013-07-17 18:30:00,
2013-07-17 14:35:00,89.3,66.0,29.56,West,270,4.0,9.0,47,0.00,,,0.00,Rainwise IP-100,2013-07-17 18:35:00,
2013-07-17 14:40:00,89.9,70.0,29.56,SW,225,2.0,9.0,52,0.00,,,0.00,Rainwise IP-100,2013-07-17 18:40:00,
2013-07-17 14:45:00,90.2,69.0,29.56,West,270,1.0,7.0,50,0.00,,,0.00,Rainwise IP-100,2013-07-17 18:45:00,
2013-07-17 14:50:00,90.5,69.0,29.56,WSW,247,2.0,0.0,49,0.00,,,0.00,Rainwise IP-100,2013-07-17 18:50:00,
2013-07-17 14:55:00,90.5,67.0,29.56,WSW,247,9.0,9.0,46,0.00,,,0.00,Rainwise IP-100,2013-07-17 18:55:00,
2013-07-17 15:00:00,90.2,66.0,29.56,West,270,0.0,0.0,46,0.00,,,0.00,Rainwise IP-100,2013-07-17 19:00:00,
2013-07-17 15:05:00,90.3,67.0,29.55,West,270,6.0,9.0,47,0.00,,,0.00,Rainwise IP-100,2013-07-17 19:05:00,
2013-07-17 15:11:00,89.9,65.0,29.55,West,270,6.0,0.0,44,0.00,,,0.00,Rainwise IP-100,2013-07-17 19:11:00,
2013-07-17 15:16:00,89.9,66.0,29.54,WSW,247,5.0,0.0,46,0.00,,,0.00,Rainwise IP-100,2013-07-17 19:16:00,
2013-07-17 15:21:00,90.3,67.0,29.54,WSW,247,5.0,9.0,47,0.00,,,0.00,Rainwise IP-100,2013-07-17 19:21:00,
2013-07-17 15:26:00,90.3,64.0,29.54,WSW,247,7.0,9.0,42,0.00,,,0.00,Rainwise IP-100,2013-07-17 19:26:00,
2013-07-17 15:31:00,89.7,66.0,29.54,WSW,247,9.0,9.0,47,0.00,,,0.00,Rainwise IP-100,2013-07-17 19:31:00,
2013-07-17 15:36:00,89.6,67.0,29.54,WSW,247,2.0,2.0,48,0.00,,,0.00,Rainwise IP-100,2013-07-17 19:36:00,
2013-07-17 15:41:00,90.0,69.0,29.54,West,270,6.0,9.0,50,0.00,,,0.00,Rainwise IP-100,2013-07-17 19:41:00,
2013-07-17 15:47:00,90.4,66.0,29.53,South,180,2.0,9.0,45,0.00,,,0.00,Rainwise IP-100,2013-07-17 19:47:00,
2013-07-17 15:52:00,91.5,69.0,29.53,SSW,202,1.0,6.0,49,0.00,,,0.00,Rainwise IP-100,2013-07-17 19:52:00,
2013-07-17 15:57:00,91.6,68.0,29.53,West,270,7.0,9.0,47,0.00,,,0.00,Rainwise IP-100,2013-07-17 19:57:00,
2013-07-17 16:02:00,91.5,66.0,29.53,West,270,6.0,0.0,43,0.00,,,0.00,Rainwise IP-100,2013-07-17 20:02:00,
2013-07-17 16:07:00,91.8,70.0,29.53,SW,225,2.0,8.0,49,0.00,,,0.00,Rainwise IP-100,2013-07-17 20:07:00,
2013-07-17 16:12:00,92.9,69.0,29.53,WSW,247,4.0,5.0,47,0.00,,,0.00,Rainwise IP-100,2013-07-17 20:12:00,
2013-07-17 16:17:00,92.1,68.0,29.53,SW,225,1.0,4.0,46,0.00,,,0.00,Rainwise IP-100,2013-07-17 20:17:00,
2013-07-17 16:22:00,91.8,69.0,29.54,SSE,157,2.0,0.0,47,0.00,,,0.00,Rainwise IP-100,2013-07-17 20:22:00,
2013-07-17 16:28:00,91.4,68.0,29.53,SW,225,2.0,2.0,46,0.00,,,0.00,Rainwise IP-100,2013-07-17 20:28:00,
2013-07-17 16:33:00,90.6,67.0,29.53,WSW,247,7.0,7.0,47,0.00,,,0.00,Rainwise IP-100,2013-07-17 20:33:00,
2013-07-17 16:38:00,90.0,65.0,29.53,WSW,247,9.0,0.0,44,0.00,,,0.00,Rainwise IP-100,2013-07-17 20:38:00,
2013-07-17 16:43:00,90.2,68.0,29.53,SW,225,0.0,1.0,48,0.00,,,0.00,Rainwise IP-100,2013-07-17 20:43:00,
2013-07-17 16:48:00,90.8,67.0,29.52,WSW,247,6.0,9.0,46,0.00,,,0.00,Rainwise IP-100,2013-07-17 20:48:00,
2013-07-17 16:50:00,90.9,68.0,29.52,SW,225,6.0,9.0,47,0.00,,,0.00,Rainwise IP-100,2013-07-17 20:50:00,
2013-07-17 16:55:00,89.9,67.0,29.52,WSW,247,4.0,4.0,47,0.00,,,0.00,Rainwise IP-100,2013-07-17 20:55:00,
2013-07-17 17:00:00,89.2,67.0,29.52,WSW,247,6.0,0.0,49,0.00,,,0.00,Rainwise IP-100,2013-07-17 21:00:00,
2013-07-17 17:06:00,89.3,67.0,29.52,WSW,247,6.0,0.0,49,0.00,,,0.00,Rainwise IP-100,2013-07-17 21:06:00,
2013-07-17 17:11:00,90.1,70.0,29.51,WSW,247,5.0,9.0,52,0.00,,,0.00,Rainwise IP-100,2013-07-17 21:11:00,
2013-07-17 17:16:00,90.1,67.0,29.51,WSW,247,6.0,0.0,47,0.00,,,0.00,Rainwise IP-100,2013-07-17 21:16:00,
2013-07-17 17:21:00,89.6,68.0,29.51,West,270,6.0,6.0,49,0.00,,,0.00,Rainwise IP-100,2013-07-17 21:21:00,
2013-07-17 17:26:00,89.6,68.0,29.50,West,270,5.0,0.0,50,0.00,,,0.00,Rainwise IP-100,2013-07-17 21:26:00,
2013-07-17 17:31:00,89.6,68.0,29.50,West,270,4.0,9.0,49,0.00,,,0.00,Rainwise IP-100,2013-07-17 21:31:00,
2013-07-17 17:36:00,89.8,70.0,29.50,West,270,4.0,8.0,53,0.00,,,0.00,Rainwise IP-100,2013-07-17 21:36:00,
2013-07-17 17:41:00,89.6,67.0,29.49,West,270,6.0,9.0,48,0.00,,,0.00,Rainwise IP-100,2013-07-17 21:41:00,
2013-07-17 17:47:00,89.3,67.0,29.49,WNW,292,3.0,9.0,49,0.00,,,0.00,Rainwise IP-100,2013-07-17 21:47:00,
2013-07-17 17:52:00,90.1,70.0,29.49,SE,135,1.0,4.0,52,0.00,,,0.00,Rainwise IP-100,2013-07-17 21:52:00,
2013-07-17 17:57:00,90.3,70.0,29.49,WSW,247,1.0,7.0,52,0.00,,,0.00,Rainwise IP-100,2013-07-17 21:57:00,
2013-07-17 18:02:00,90.7,72.0,29.49,WSW,247,4.0,7.0,55,0.00,,,0.00,Rainwise IP-100,2013-07-17 22:02:00,
2013-07-17 18:07:00,90.0,68.0,29.49,WSW,247,2.0,7.0,49,0.00,,,0.00,Rainwise IP-100,2013-07-17 22:07:00,
2013-07-17 18:12:00,89.5,66.0,29.49,SW,225,5.0,5.0,47,0.00,,,0.00,Rainwise IP-100,2013-07-17 22:12:00,
2013-07-17 18:17:00,89.7,68.0,29.49,SW,225,2.0,7.0,49,0.00,,,0.00,Rainwise IP-100,2013-07-17 22:17:00,
2013-07-17 18:23:00,90.1,70.0,29.48,WSW,247,1.0,6.0,53,0.00,,,0.00,Rainwise IP-100,2013-07-17 22:23:00,
2013-07-17 18:28:00,90.3,68.0,29.48,SW,225,5.0,5.0,49,0.00,,,0.00,Rainwise IP-100,2013-07-17 22:28:00,
2013-07-17 18:33:00,89.1,69.0,29.49,SW,225,6.0,8.0,53,0.00,,,0.00,Rainwise IP-100,2013-07-17 22:33:00,
2013-07-17 18:38:00,88.3,69.0,29.49,SW,225,4.0,9.0,54,0.00,,,0.00,Rainwise IP-100,2013-07-17 22:38:00,
2013-07-17 18:43:00,87.2,67.0,29.49,West,270,7.0,9.0,52,0.00,,,0.00,Rainwise IP-100,2013-07-17 22:43:00,
2013-07-17 18:48:00,86.7,67.0,29.49,SW,225,5.0,9.0,52,0.00,,,0.00,Rainwise IP-100,2013-07-17 22:48:00,
2013-07-17 18:53:00,86.5,66.0,29.49,WSW,247,4.0,9.0,51,0.00,,,0.00,Rainwise IP-100,2013-07-17 22:53:00,
2013-07-17 18:58:00,86.2,66.0,29.49,WSW,247,6.0,9.0,52,0.00,,,0.00,Rainwise IP-100,2013-07-17 22:58:00,
2013-07-17 19:04:00,85.8,67.0,29.49,West,270,5.0,8.0,55,0.00,,,0.00,Rainwise IP-100,2013-07-17 23:04:00,
2013-07-17 19:09:00,85.4,68.0,29.49,WSW,247,3.0,6.0,57,0.00,,,0.00,Rainwise IP-100,2013-07-17 23:09:00,
2013-07-17 19:14:00,85.0,70.0,29.49,WSW,247,2.0,4.0,61,0.00,,,0.00,Rainwise IP-100,2013-07-17 23:14:00,
2013-07-17 19:19:00,84.5,71.0,29.48,WSW,247,0.0,4.0,65,0.00,,,0.00,Rainwise IP-100,2013-07-17 23:19:00,
2013-07-17 19:24:00,83.4,72.0,29.48,WSW,247,0.0,4.0,68,0.00,,,0.00,Rainwise IP-100,2013-07-17 23:24:00,
2013-07-17 19:29:00,82.3,70.0,29.48,WSW,247,3.0,6.0,67,0.00,,,0.00,Rainwise IP-100,2013-07-17 23:29:00,
2013-07-17 19:34:00,81.8,71.0,29.47,WSW,247,2.0,4.0,71,0.00,,,0.00,Rainwise IP-100,2013-07-17 23:34:00,
2013-07-17 19:40:00,81.1,70.0,29.47,WSW,247,0.0,4.0,69,0.00,,,0.00,Rainwise IP-100,2013-07-17 23:40:00,
2013-07-17 19:45:00,80.6,71.0,29.47,WSW,247,2.0,4.0,72,0.00,,,0.00,Rainwise IP-100,2013-07-17 23:45:00,
2013-07-17 19:50:00,80.1,70.0,29.46,WSW,247,0.0,3.0,72,0.00,,,0.00,Rainwise IP-100,2013-07-17 23:50:00,
2013-07-17 19:55:00,79.7,69.0,29.46,WSW,247,0.0,1.0,72,0.00,,,0.00,Rainwise IP-100,2013-07-17 23:55:00,
2013-07-17 20:00:00,79.3,71.0,29.46,WSW,247,2.0,2.0,75,0.00,,,0.00,Rainwise IP-100,2013-07-18 00:00:00,
2013-07-17 20:05:00,78.7,70.0,29.46,WSW,247,0.0,3.0,76,0.00,,,0.00,Rainwise IP-100,2013-07-18 00:05:00,
2013-07-17 20:10:00,78.2,70.0,29.46,WSW,247,2.0,4.0,76,0.00,,,0.00,Rainwise IP-100,2013-07-18 00:10:00,
2013-07-17 20:15:00,77.9,70.0,29.46,WSW,247,2.0,3.0,77,0.00,,,0.00,Rainwise IP-100,2013-07-18 00:15:00,
2013-07-17 20:21:00,77.5,69.0,29.46,WSW,247,0.0,5.0,76,0.00,,,0.00,Rainwise IP-100,2013-07-18 00:21:00,
2013-07-17 20:26:00,77.2,69.0,29.46,WSW,247,0.0,5.0,77,0.00,,,0.00,Rainwise IP-100,2013-07-18 00:26:00,
2013-07-17 20:31:00,76.9,69.0,29.46,WSW,247,1.0,4.0,76,0.00,,,0.00,Rainwise IP-100,2013-07-18 00:31:00,
2013-07-17 20:36:00,76.4,71.0,29.46,WSW,247,0.0,3.0,83,0.00,,,0.00,Rainwise IP-100,2013-07-18 00:36:00,
2013-07-17 20:41:00,76.0,69.0,29.46,WSW,247,0.0,2.0,79,0.00,,,0.00,Rainwise IP-100,2013-07-18 00:41:00,
2013-07-17 20:46:00,75.7,69.0,29.46,WSW,247,0.0,0.0,80,0.00,,,0.00,Rainwise IP-100,2013-07-18 00:46:00,
2013-07-17 20:51:00,75.5,70.0,29.45,West,270,2.0,2.0,84,0.00,,,0.00,Rainwise IP-100,2013-07-18 00:51:00,
2013-07-17 20:57:00,75.3,69.0,29.45,WSW,247,0.0,6.0,82,0.00,,,0.00,Rainwise IP-100,2013-07-18 00:57:00,
2013-07-17 21:02:00,75.3,69.0,29.45,WSW,247,2.0,3.0,82,0.00,,,0.00,Rainwise IP-100,2013-07-18 01:02:00,
2013-07-17 21:07:00,75.4,69.0,29.45,West,270,0.0,4.0,81,0.00,,,0.00,Rainwise IP-100,2013-07-18 01:07:00,
2013-07-17 21:12:00,75.3,69.0,29.45,West,270,0.0,1.0,82,0.00,,,0.00,Rainwise IP-100,2013-07-18 01:12:00,
2013-07-17 21:17:00,75.1,69.0,29.46,West,270,0.0,0.0,81,0.00,,,0.00,Rainwise IP-100,2013-07-18 01:17:00,
2013-07-17 21:22:00,74.8,68.0,29.46,West,270,0.0,0.0,80,0.00,,,0.00,Rainwise IP-100,2013-07-18 01:22:00,
2013-07-17 21:27:00,74.5,69.0,29.46,West,270,0.0,0.0,83,0.00,,,0.00,Rainwise IP-100,2013-07-18 01:27:00,
2013-07-17 21:32:00,74.2,70.0,29.46,WNW,292,1.0,4.0,86,0.00,,,0.00,Rainwise IP-100,2013-07-18 01:32:00,
2013-07-17 21:38:00,73.8,69.0,29.46,WNW,292,0.0,2.0,84,0.00,,,0.00,Rainwise IP-100,2013-07-18 01:38:00,
2013-07-17 21:43:00,73.6,69.0,29.45,WSW,247,2.0,3.0,86,0.00,,,0.00,Rainwise IP-100,2013-07-18 01:43:00,
2013-07-17 21:48:00,73.6,70.0,29.45,WSW,247,0.0,3.0,88,0.00,,,0.00,Rainwise IP-100,2013-07-18 01:48:00,
2013-07-17 21:53:00,73.6,69.0,29.45,WSW,247,1.0,3.0,87,0.00,,,0.00,Rainwise IP-100,2013-07-18 01:53:00,
2013-07-17 21:58:00,73.5,69.0,29.45,WSW,247,0.0,3.0,87,0.00,,,0.00,Rainwise IP-100,2013-07-18 01:58:00,
2013-07-17 22:03:00,73.5,69.0,29.45,WSW,247,0.0,0.0,85,0.00,,,0.00,Rainwise IP-100,2013-07-18 02:03:00,
2013-07-17 22:08:00,73.4,69.0,29.45,WSW,247,0.0,0.0,86,0.00,,,0.00,Rainwise IP-100,2013-07-18 02:08:00,
2013-07-17 22:14:00,73.3,69.0,29.45,WSW,247,0.0,0.0,88,0.00,,,0.00,Rainwise IP-100,2013-07-18 02:14:00,
2013-07-17 22:19:00,73.1,69.0,29.44,WSW,247,0.0,0.0,86,0.00,,,0.00,Rainwise IP-100,2013-07-18 02:19:00,
2013-07-17 22:24:00,73.1,69.0,29.44,WSW,247,0.0,3.0,87,0.00,,,0.00,Rainwise IP-100,2013-07-18 02:24:00,
2013-07-17 22:29:00,74.8,70.0,29.44,SW,225,6.0,7.0,86,0.00,,,0.00,Rainwise IP-100,2013-07-18 02:29:00,
2013-07-17 22:34:00,76.7,71.0,29.43,SW,225,8.0,9.0,83,0.00,,,0.00,Rainwise IP-100,2013-07-18 02:34:00,
2013-07-17 22:39:00,77.5,71.0,29.43,WSW,247,5.0,9.0,81,0.00,,,0.00,Rainwise IP-100,2013-07-18 02:39:00,
2013-07-17 22:44:00,77.9,71.0,29.43,WSW,247,6.0,8.0,79,0.00,,,0.00,Rainwise IP-100,2013-07-18 02:44:00,
2013-07-17 22:49:00,78.0,71.0,29.43,WSW,247,6.0,7.0,79,0.00,,,0.00,Rainwise IP-100,2013-07-18 02:49:00,
2013-07-17 22:55:00,78.3,71.0,29.43,WSW,247,7.0,0.0,79,0.00,,,0.00,Rainwise IP-100,2013-07-18 02:55:00,
2013-07-17 23:00:00,78.4,71.0,29.43,SW,225,5.0,9.0,78,0.00,,,0.00,Rainwise IP-100,2013-07-18 03:00:00,
2013-07-17 23:05:00,78.2,71.0,29.43,SW,225,2.0,7.0,79,0.00,,,0.00,Rainwise IP-100,2013-07-18 03:05:00,
2013-07-17 23:10:00,77.9,71.0,29.43,WSW,247,1.0,6.0,79,0.00,,,0.00,Rainwise IP-100,2013-07-18 03:10:00,
2013-07-17 23:15:00,77.9,71.0,29.43,South,180,0.0,6.0,79,0.00,,,0.00,Rainwise IP-100,2013-07-18 03:15:00,
2013-07-17 23:20:00,77.9,71.0,29.43,WSW,247,2.0,9.0,79,0.00,,,0.00,Rainwise IP-100,2013-07-18 03:20:00,
2013-07-17 23:25:00,78.0,71.0,29.44,WSW,247,0.0,8.0,79,0.00,,,0.00,Rainwise IP-100,2013-07-18 03:25:00,
2013-07-17 23:31:00,77.9,71.0,29.43,WSW,247,6.0,7.0,79,0.00,,,0.00,Rainwise IP-100,2013-07-18 03:31:00,
2013-07-17 23:36:00,77.9,71.0,29.44,WSW,247,6.0,7.0,80,0.00,,,0.00,Rainwise IP-100,2013-07-18 03:36:00,
2013-07-17 23:41:00,77.7,71.0,29.45,WSW,247,0.0,6.0,80,0.00,,,0.00,Rainwise IP-100,2013-07-18 03:41:00,
2013-07-17 23:46:00,77.2,71.0,29.45,NNE,22,4.0,6.0,82,0.00,,,0.00,Rainwise IP-100,2013-07-18 03:46:00,
2013-07-17 23:51:00,76.3,70.0,29.45,NE,45,0.0,6.0,81,0.00,,,0.00,Rainwise IP-100,2013-07-18 03:51:00,
2013-07-17 23:56:00,75.7,69.0,29.45,NE,45,0.0,0.0,81,0.00,,,0.00,Rainwise IP-100,2013-07-18 03:56:00,